Location: Lombard
(41.8800°N, 88.0080°W)
Time: 10:23:05
(UTC-05:00)

A-11 Canister half - Pass Details

Date: 15 February 2023
Orbit: 1512 x 1687 km, 47.2° (Epoch: 26 March)

Event Time Altitude Azimuth Distance (km) Brightness Sun altitude
Rises 05:38:38 0° 196° (SSW) 4,925 11.5 -13.5°
Reaches altitude 10° 05:42:21 10° 187° (S) 3,931 11.1 -12.8°
Maximum altitude 05:50:37 30° 131° (SE) 2,646 10.9 -11.3°
Drops below altitude 10° 05:58:44 10° 75° (ENE) 3,857 12.3 -9.8°
Sets 06:02:17 0° 65° (ENE) 4,820 12.7 -9.1°
